Location: LDNL
(36.4545°S, 141.6685°E)
Time: 11:57:56
(UTC+10:00)

Explorer 7 - Pass Details

Date: 17 August 2022
Orbit: 482 x 668 km, 50.3° (Epoch: 26 September)

Event Time Altitude Azimuth Distance (km) Brightness Sun altitude
Rises 22:53:52 0° 229° (SW) 2,938 - -57.2°
Reaches altitude 10° 22:56:18 10° 225° (SW) 1,997 - -57.6°
Maximum altitude 23:00:49 59° 145° (SE) 687 - -58.3°
Drops below altitude 10° 23:05:03 10° 64° (ENE) 1,861 - -59.0°
Sets 23:07:14 0° 60° (ENE) 2,719 - -59.3°
